Terminal Aerodrome Forecast
Issued by NWS Cleveland, OH

Home | Current Version | Previous Version | Text Only | Print | Product List | Glossary Off
Versions: 1 2 3 4 5 6 7 8 9 10 11 12 13 14 15 16 17

000
FTUS41 KCLE 241700
TAFERI
TAF
KERI 241726Z 2418/2518 21030G45KT P6SM OVC035
      TEMPO 2418/2421 3SM -SHRA
     FM242100 22030G40KT P6SM OVC035
     FM250100 22025G35KT P6SM OVC035
     FM250800 22020G30KT P6SM OVC035
     FM251200 24020G30KT P6SM OVC030=

USA.gov is the U.S. government's official web portal to all federal, state and local government web resources and services.